カタログに戻る

STARLINK-34718

運用中通信VLEO
NORAD 64911·PAYLOAD·🇺🇸 United States

打ち上げ Jul 26, 2025 から Cape Canaveral Space Force Station

Loading…

次のパス (今後24時間)

TLE

最新Source: CelesTrak SupGP

元期: Sep 15, 2026, 04:05 UTC

1 64911C 25157H   26258.17062500  .00006148  00000+0  18165-3 0  2585
2 64911  53.1580 182.8150 0001360  79.4020 250.0956 15.34387338    15

AllMySatでSTARLINK-34718をリアルタイム追跡

Download on the App Store